Flag for U.S.A. Weather past 2 weeks in Alexandria, Virginia, U.S.A.

Now
72 °F

Passing clouds.


Feels Like: 77 °F
Forecast: 65 / 83 °F
Wind: 6 mph from North

Location: Reagan National Airport

Current Time: Jul 25, 2014 at 1:19:07 AM

Latest Report: Jul 25, 2014 at 12:52 AM


Visibility: 10 mi

Pressure: 29.97 "Hg

Humidity: 55%

Dew point: 55 °F

Location of AlexandriaLocation

Historic Weather in Alexandria — Graph

°F

Alexandria temperature yesterday

Maximum temperature yesterday: 83 °F (at 3:52 PM)
Minimum temperature yesterday: 73 °F (at 11:52 PM)
Average temperature yesterday: 78 °F

Past Weeks' High & Low Weather Summary

 TemperatureHumidityPressure
High93 °F (Jul 13, 3:52 PM)85% (Jul 15, 4:52 AM)30.24 "Hg (Jul 15, 4:52 AM)
Low67 °F (Jul 17, 5:52 AM)31% (Jul 18, 1:52 PM)29.74 "Hg (Jul 15, 3:59 PM)
Average79 °F62%30.04 "Hg
* Reported Jul 9 11:52 PM — Jul 24 11:52 PM, Alexandria, Weather by CustomWeather, © 2014

Note: Actual official high and low records may vary slightly from our data, if they occured in-between our weather recording intervals... More about our weather records

Advertising

Alexandria weather history for previous 24 hours

 ConditionsComfort  
Time TempWeatherWind HumidityBarometerVisibility
11:52 PM
Jul 24
73 °FPassing clouds.9 mph53%29.95 "Hg10 mi
10:52 PM75 °FPassing clouds.9 mph52%29.95 "Hg10 mi
9:52 PM75 °FPassing clouds.7 mph52%29.94 "Hg10 mi
8:52 PM76 °FPartly sunny.9 mph50%29.92 "Hg10 mi
7:52 PM78 °FPartly sunny.14 mph46%29.90 "Hg10 mi
6:52 PM79 °FBroken clouds.7 mph52%29.89 "Hg10 mi
5:52 PM79 °FBroken clouds.7 mph50%29.89 "Hg10 mi
4:52 PM79 °FMostly cloudy.7 mph52%29.89 "Hg10 mi
3:52 PM83 °FBroken clouds.7 mph48%29.90 "Hg10 mi
2:52 PM80 °FMore clouds than sun.9 mph51%29.91 "Hg10 mi
1:52 PM81 °FOvercast.8 mph51%29.91 "Hg10 mi
12:52 PM80 °FOvercast.9 mph54%29.92 "Hg10 mi
11:52 AM77 °FPartly sunny.8 mph60%29.92 "Hg10 mi
10:52 AM77 °FOvercast.12 mph62%29.93 "Hg10 mi
9:52 AM76 °FOvercast.9 mph62%29.92 "Hg10 mi
8:52 AM76 °FMostly cloudy.9 mph64%29.90 "Hg10 mi
7:52 AM76 °FLight rain. Mostly cloudy.9 mph72%29.90 "Hg10 mi
6:52 AM76 °FMostly cloudy.12 mph72%29.87 "Hg10 mi
5:52 AM76 °FMostly cloudy.6 mph82%29.88 "Hg10 mi
4:52 AM77 °FLight rain. Mostly cloudy.9 mph77%29.87 "Hg9 mi
3:52 AM78 °FOvercast.9 mph71%29.86 "Hg10 mi
2:52 AM78 °FMostly cloudy.5 mph74%29.86 "Hg10 mi
1:52 AM79 °FPassing clouds.7 mph72%29.86 "Hg10 mi
Weather by CustomWeather, © 2014

See weather overviewHow to use our weather pages